Погода в Сарове

Россия / Нижегородская область     54°55′22″N   43°20′41″E
темп.,
°C
ветер,
м/с
пор.,
м/с
влажн.,
%
обл.,
%
осадки,
мм/ч
давл.,
гПа
погр.,
м
19 апреля, пн
пн1900:00+5всв4988100 0.0 1022337
03:00+4всв51189100 0.0 1023403
06:00+4всв6137973 0.0 1022454
09:00+6всв7126299 0.0 1023647
12:00+9в81054100 0.0 10231182
15:00+9в8104452 0.0 10231498
18:00+7в71150100 0.0 10231175
21:00+5всв71359100 0.0 1024863
20 апреля, вт
вт2000:00+4в61370100 0.0 1024727
03:00+3в6137582 0.0 1024722
06:00+2в6137361 0.0 1024760
09:00+5вюв71468100 0.0 1024828
12:00+8вюв8135895 0.0 10231147
15:00+5вюв71469100 0.0 1022986
18:00+7вюв61461100 0.3 10191229
21:00+6вюв91761100 0.3 10171144
21 апреля, ср
ср2100:00+4вюв102183100 2.9 10131062
03:00+4вюв102186100 10.8 10101227
06:00+5юв102186100 0.8 10071181
09:00+6юв102089100 0.9 1006995
12:00+8ю81582100 0.2 10081344
15:00+7ююз71580100 0.3 10111280
18:00+7ююз61277100 0.0 10131255
21:00+7ююз4118299 0.1 1015534
22 апреля, чт
чт2200:00+5ю359167 0.0 1016111
03:00+3ююв33945 0.0 101760
06:00+5ююв2491100 0.0 1018138
09:00+8ю4782100 0.0 1018452
12:00+12юз685122 0.1 10181873
15:00+12юз5858100 0.1 10191203
18:00+11ююз3864100 0.0 1020266
21:00+9ю347597 0.0 102159
23 апреля, пт
пт2300:00+9ю3775100 0.0 1021148
03:00+8ю367993 0.0 1021140
06:00+7ю368530 0.0 1022122
09:00+13ю466338 0.1 1021608
12:00+16ю4651100 0.6 10201725
15:00+16ю554643 1.3 10192002
18:00+14ююв4958100 0.0 1019408
21:00+11ююв397273 0.1 1019273